This is the latest recevied weather packets stored in our database for station/object KE4ODN. If no packets are shown the sender has not sent any weather packets the latest 10 day(s).
| Time | Temp. | Humidity | Pressure | Rain* | Wind** | Luminosity | Snow |
|---|---|---|---|---|---|---|---|
| 1777484884 | 23.89° C | 86% | 1013 hPa | 0 mm | - | 204 W/m² | - |
| 1777484404 | 23.89° C | 85% | 1013 hPa | 0 mm | - | 190 W/m² | - |
| 1777484164 | 23.89° C | 86% | 1012.9 hPa | 0 mm | - | 394 W/m² | - |
| 1777482244 | 23.89° C | 88% | 1013.4 hPa | 0 mm | - | 867 W/m² | - |
| 1777481764 | 23.33° C | 88% | 1013.5 hPa | 0 mm | - | 355 W/m² | - |
| 1777480324 | 22.78° C | 89% | 1013.8 hPa | 0 mm | - | 146 W/m² | - |
| 1777479364 | 22.78° C | 89% | 1013.8 hPa | 0 mm | - | 158 W/m² | - |
| 1777478884 | 22.78° C | 90% | 1013.6 hPa | 0 mm | - | 276 W/m² | - |
| 1777477225 | 22.78° C | 92% | 1013.6 hPa | 0 mm | - | 229 W/m² | - |
| 1777476745 | 22.22° C | 91% | 1013.5 hPa | 0 mm | - | 134 W/m² | - |
| 1777476244 | 22.22° C | 93% | 1013.6 hPa | 0 mm | - | 172 W/m² | - |
| 1777475545 | 22.22° C | 92% | 1013.9 hPa | 0 mm | - | 144 W/m² | - |
| 1777473124 | 20.56° C | 96% | 1014.1 hPa | 0 mm | - | 181 W/m² | - |
| 1777470025 | 19.44° C | 97% | 1014.5 hPa | 0 mm | - | 141 W/m² | - |
| 1777469764 | 18.89° C | 97% | 1014.8 hPa | 0 mm | - | 100 W/m² | - |
| 1777468324 | 18.89° C | 96% | 1015 hPa | 0 mm | - | 23 W/m² | - |
| 1777467604 | 18.89° C | 97% | 1014.6 hPa | 0 mm | - | 37 W/m² | - |
| 1777467364 | 18.89° C | 97% | 1014.6 hPa | 0 mm | - | 47 W/m² | - |
| 1777467124 | 18.89° C | 97% | 1014.6 hPa | 0 mm | - | 62 W/m² | - |
| 1777466164 | 18.33° C | 97% | 1014.2 hPa | 0 mm | - | 23 W/m² | - |
| 1777465444 | 18.33° C | 97% | 1014.1 hPa | 0 mm | - | 62 W/m² | - |
| 1777464004 | 17.78° C | 96% | 1014.2 hPa | 0 mm | - | 12 W/m² | - |
| 1777463524 | 17.78° C | 96% | 1014.2 hPa | 0 mm | - | 11 W/m² | - |
| 1777459684 | 17.78° C | 96% | 1014 hPa | 1.27 mm | - | 0 W/m² | - |
| 1777458244 | 17.78° C | 96% | 1014.2 hPa | 3.05 mm | - | 0 W/m² | - |
* Rain latest hour (hover to see other rain measurements)
** Current wind speed in m/s (hover to see current wind gust speed)